Date String (YYYY-MM-DD hh:mm:ss) UTC,Instrument flags,Ambient pressure (hPa),Sample flow (lpm),Bypass flow (lpm),Sample temperature (°C),Ambient temperature (°C),ASC tube jacket temperature (°C),LED temperature (°C),Box temperature (°C),Sample RH (%),Span deviation,Mass concentration (μg/m³),Mass concentration (μg/m³),Mass concentration (μg/m³)
DateTimeUTC,F1_M11,P_M11,Q1_M11,Q2_M11,T1_M11,T2_M11,T3_M11,T4_M11,T5_M11,U1_M11,ZSPAN_M11,X0_M11,X2_M11,X1_M11
2023-01-09 07:00:00,,0824.3,5.00,0.00,22.2,22.8,00.0,31.0,24.3,09.9,0000.0,0002.12,0001.07,0000.79
2023-01-09 07:01:00,,0824.3,4.99,0.00,22.4,22.9,00.0,31.0,24.4,09.9,0000.0,0002.15,0001.08,0000.80
2023-01-09 07:02:00,,0824.3,4.99,0.00,22.4,22.4,00.0,31.1,24.4,10.0,0000.0,0002.16,0001.10,0000.81
2023-01-09 07:03:00,,0824.4,5.01,0.00,22.4,22.1,00.0,31.1,24.3,09.9,0000.0,0003.76,0001.11,0000.81
2023-01-09 07:04:00,,0824.5,5.00,0.00,22.4,21.8,00.0,31.2,24.3,09.9,0000.0,0003.55,0001.12,0000.82
2023-01-09 07:05:00,,0824.3,5.00,0.00,22.4,21.6,00.0,31.2,24.3,10.1,0000.0,0003.33,0001.11,0000.83
2023-01-09 07:06:00,,0824.2,5.00,0.00,22.4,21.5,00.0,31.2,24.2,10.4,0000.0,0003.28,0001.11,0000.83
2023-01-09 07:07:00,,0824.2,5.00,0.00,22.4,21.3,00.0,31.2,24.2,10.5,0000.0,0003.29,0001.09,0000.82
2023-01-09 07:08:00,,0824.1,5.00,0.00,22.4,21.2,00.0,31.2,24.2,10.2,0000.0,0003.22,0001.05,0000.82
2023-01-09 07:09:00,,0824.2,5.00,0.00,22.4,21.1,00.0,31.2,24.2,10.2,0000.0,0003.25,0001.06,0000.82
2023-01-09 07:10:00,,0824.2,5.01,0.00,22.4,21.2,00.0,31.2,24.1,10.8,0000.0,0003.19,0001.04,0000.82
2023-01-09 07:11:00,,0824.2,5.00,0.00,22.4,21.1,00.0,31.2,24.1,10.7,0000.0,0003.16,0001.04,0000.83
2023-01-09 07:12:00,,0824.2,4.99,0.00,22.4,21.1,00.0,31.2,24.1,10.5,0000.0,0003.22,0001.07,0000.84
2023-01-09 07:13:00,,0824.1,4.98,0.00,22.4,21.1,00.0,31.2,24.1,10.4,0000.0,0003.20,0001.07,0000.84
2023-01-09 07:14:00,,0824.2,4.98,0.00,22.4,21.1,00.0,31.2,24.1,10.2,0000.0,0001.59,0001.07,0000.85
2023-01-09 07:15:00,,0824.1,4.98,0.00,22.3,21.1,00.0,31.2,24.1,10.5,0000.0,0001.63,0001.08,0000.85
2023-01-09 07:16:00,,0824.1,5.01,0.00,22.3,21.0,00.0,31.2,24.1,10.5,0000.0,0001.60,0001.07,0000.84
2023-01-09 07:17:00,,0824.1,4.99,0.00,22.3,21.0,00.0,31.2,24.1,10.2,0000.0,0001.66,0001.10,0000.85
2023-01-09 07:18:00,,0824.1,5.00,0.00,22.3,21.0,00.0,31.2,24.1,10.0,0000.0,0001.66,0001.09,0000.85
2023-01-09 07:19:00,,0824.1,5.00,0.00,22.3,21.0,00.0,31.2,24.1,09.8,0000.0,0001.64,0001.07,0000.84
2023-01-09 07:20:00,,0824.1,5.00,0.00,22.3,21.0,00.0,31.2,24.1,09.8,0000.0,0001.84,0001.06,0000.83
2023-01-09 07:21:00,,0824.1,5.00,0.00,22.3,20.9,00.0,31.2,24.1,10.1,0000.0,0001.82,0001.05,0000.83
2023-01-09 07:22:00,,0824.1,5.00,0.00,22.3,21.0,00.0,31.2,24.1,10.4,0000.0,0001.82,0001.05,0000.83
2023-01-09 07:23:00,,0824.2,5.00,0.00,22.3,21.0,00.0,31.2,24.1,10.0,0000.0,0001.79,0001.04,0000.83
2023-01-09 07:24:00,,0824.3,5.01,0.00,22.3,20.9,00.0,31.2,24.1,10.0,0000.0,0001.81,0001.06,0000.85
2023-01-09 07:25:00,,0824.2,5.00,0.00,22.3,20.9,00.0,31.2,24.1,10.2,0000.0,0001.82,0001.07,0000.86
2023-01-09 07:26:00,,0824.3,5.00,0.00,22.3,20.9,00.0,31.2,24.1,10.2,0000.0,0002.02,0001.11,0000.89
2023-01-09 07:27:00,,0824.3,4.99,0.00,22.3,20.8,00.0,31.2,24.1,10.1,0000.0,0002.18,0001.17,0000.93
2023-01-09 07:28:00,,0824.4,5.01,0.00,22.3,20.9,00.0,31.2,24.0,10.4,0000.0,0002.48,0001.24,0000.97
2023-01-09 07:29:00,,0824.3,4.99,0.00,22.3,20.9,00.0,31.2,24.0,10.4,0000.0,0002.58,0001.31,0001.04
2023-01-09 07:30:00,,0824.3,4.99,0.00,22.3,20.9,00.0,31.1,24.0,10.3,0000.0,0003.91,0001.45,0001.13
2023-01-09 07:31:00,,0824.3,5.00,0.00,22.3,20.9,00.0,31.1,24.1,10.3,0000.0,0006.30,0001.59,0001.23
2023-01-09 07:32:00,,0824.5,5.00,0.00,22.3,20.9,00.0,31.1,24.1,10.4,0000.0,0007.06,0001.72,0001.33
2023-01-09 07:33:00,,0824.4,5.00,0.00,22.3,20.9,00.0,31.1,24.1,10.5,0000.0,0007.51,0001.88,0001.43
2023-01-09 07:34:00,,0824.4,5.01,0.00,22.3,20.9,00.0,31.1,24.0,10.5,0000.0,0007.78,0002.10,0001.55
2023-01-09 07:35:00,,0824.7,5.01,0.00,22.2,20.9,00.0,31.1,24.0,10.5,0000.0,0008.06,0002.31,0001.65
2023-01-09 07:36:00,,0824.7,5.01,0.00,22.2,20.8,00.0,31.1,24.0,10.4,0000.0,0008.60,0002.47,0001.74
2023-01-09 07:37:00,,0824.6,5.00,0.00,22.2,20.8,00.0,31.1,24.0,10.5,0000.0,0009.55,0002.62,0001.84
2023-01-09 07:38:00,,0824.6,4.98,0.00,22.2,20.8,00.0,31.1,24.0,10.5,0000.0,0009.94,0002.77,0001.94
2023-01-09 07:39:00,,0824.8,5.01,0.00,22.2,20.8,00.0,31.1,23.9,10.4,0000.0,0010.14,0002.94,0002.02
2023-01-09 07:40:00,,0824.8,5.01,0.00,22.2,20.8,00.0,31.1,23.8,10.3,0000.0,0010.29,0003.06,0002.08
2023-01-09 07:41:00,,0824.9,4.99,0.00,22.2,20.8,00.0,31.1,23.8,10.2,0000.5,0009.87,0003.12,0002.09
2023-01-09 07:42:00,,0824.9,4.97,0.00,22.2,20.8,00.0,31.1,23.9,10.2,0001.8,0008.94,0003.18,0002.11
2023-01-09 07:43:00,,0824.9,5.00,0.00,22.2,20.8,00.0,31.1,23.9,10.1,0002.5,0008.63,0003.20,0002.10
2023-01-09 07:44:00,,0824.9,5.00,0.00,22.2,20.8,00.0,31.1,23.9,10.2,0002.4,0008.49,0003.19,0002.07
2023-01-09 07:45:00,,0824.8,4.99,0.00,22.2,20.8,00.0,31.1,23.9,10.2,0000.7,0008.39,0003.14,0002.03
2023-01-09 07:46:00,,0824.8,4.99,0.00,22.2,20.8,00.0,31.1,23.9,10.2,0000.0,0008.28,0003.08,0001.99
2023-01-09 07:47:00,,0824.8,5.00,0.00,22.2,20.8,00.0,31.1,23.9,10.2,0000.0,0007.78,0002.99,0001.94
2023-01-09 07:48:00,,0824.8,5.01,0.00,22.1,20.7,00.0,31.1,23.9,10.2,0000.0,0006.28,0002.85,0001.87
2023-01-09 07:49:00,,0824.8,5.00,0.00,22.1,20.7,00.0,31.1,23.9,10.1,0000.0,0005.42,0002.68,0001.77
2023-01-09 07:50:00,,0824.9,5.01,0.00,22.1,20.7,00.0,31.0,23.9,10.1,0000.0,0005.35,0002.47,0001.69
2023-01-09 07:51:00,,0824.9,5.00,0.00,22.1,20.7,00.0,31.0,23.9,10.1,0000.0,0005.40,0002.33,0001.61
2023-01-09 07:52:00,,0824.9,5.00,0.00,22.1,20.7,00.0,31.0,23.9,10.1,0000.0,0004.94,0002.21,0001.55
2023-01-09 07:53:00,,0824.9,5.01,0.00,22.1,21.0,00.0,31.0,23.9,10.0,0000.0,0004.30,0002.05,0001.47
2023-01-09 07:54:00,,0824.9,5.01,0.00,22.2,21.9,00.0,31.0,24.2,09.9,0000.0,0004.15,0001.93,0001.40
2023-01-09 07:55:00,,0824.9,4.99,0.00,22.3,22.8,00.0,31.0,24.4,09.9,0000.0,0003.98,0001.86,0001.38
2023-01-09 07:56:00,,0824.9,4.99,0.00,22.4,22.8,00.0,31.1,24.5,09.8,0000.0,0003.84,0001.82,0001.34
2023-01-09 07:57:00,,0824.9,5.00,0.00,22.5,22.4,00.0,31.1,24.5,09.6,0000.0,0003.67,0001.74,0001.28
2023-01-09 07:58:00,,0824.9,5.00,0.00,22.5,22.1,00.0,31.1,24.4,09.4,0000.0,0003.69,0001.70,0001.25
2023-01-09 07:59:00,,0824.9,5.00,0.00,22.5,21.8,00.0,31.2,24.3,09.5,0000.0,0004.18,0001.68,0001.23
